Houston / Southwest Airport, TX

4:42 PM CDT on October 14, 2019 (GMT -0500)
Houston-Southwest

Weather History for KAXH - September, 2019

Change the Weather History Date:

Saturday, September 21, 2019

  Actual Average (WUND) Record (WUND)
Temperature  
Mean Temperature 80 °F -  
Max Temperature 88 °F - - (-1)
Min Temperature 73 °F - - (-1)
Cooling Degree Days 16    
Growing Degree Days 30 (Base 50)    
Moisture  
Dew Point 74 °F    
Average Humidity 84    
Maximum Humidity 99    
Minimum Humidity 55    
Precipitation  
Precipitation 0.00 in - - ()
Sea Level Pressure  
Sea Level Pressure 30.05 in    
Wind  
Wind Speed 3 mph ()    
Max Wind Speed 13 mph    
Max Gust Speed 18 mph    
Visibility 9.9 miles    
Events      
Averages and records for this station are not official NWS values.
T = Trace of Precipitation, MM = Missing Value Source: Averaged Metar Reports

Daily Weather History Graph

Daily Weather History Graph

Search for Another Location

Airport or City:

Astronomy

Sep. 21, 2019 Rise Set
Actual Time 7:09 AM CDT 7:19 PM CDT
Civil Twilight 6:45 AM CDT 7:43 PM CDT
Nautical Twilight 6:18 AM CDT 8:11 PM CDT
Astronomical Twilight 5:50 AM CDT 8:39 PM CDT
Moon No Moon Rise 1:48 PM CDT (9/21)
Length of Visible Light 12h 57m
Length of Day
12h 10m
Waning Gibbous, 54% of the Moon is Illuminated
Sep 21
Waning Gibbous
Sep 21
Last Quarter
Sep 28
New
Oct 5
First Quarter
Oct 13
Full

Hourly Weather History & Observations

Time (CDT) Temp. Heat Index Dew Point Humidity Pressure Visibility Wind Dir Wind Speed Gust Speed Precip Events Conditions
12:55 AM 76.5 °F - 75.2 °F 96% 30.06 in 10.0 mi Calm Calm - N/A   Clear
1:15 AM 75.9 °F - 74.8 °F 96% 30.05 in 10.0 mi Calm Calm - N/A   Clear
1:35 AM 75.6 °F - 74.8 °F 98% 30.05 in 10.0 mi Calm Calm - N/A   Clear
1:55 AM 75.6 °F - 74.7 °F 97% 30.05 in 10.0 mi Calm Calm - N/A   Clear
2:15 AM 74.7 °F - 74.3 °F 99% 30.05 in 10.0 mi Calm Calm - N/A   Clear
2:35 AM 74.5 °F - 74.3 °F 99% 30.04 in 10.0 mi Calm Calm - N/A   Clear
2:55 AM 74.5 °F - 74.1 °F 99% 30.04 in 10.0 mi Calm Calm - N/A   Clear
3:15 AM 74.3 °F - 73.8 °F 98% 30.04 in 10.0 mi Calm Calm - N/A   Clear
3:35 AM 74.3 °F - 73.6 °F 98% 30.03 in 10.0 mi Calm Calm - N/A   Clear
3:55 AM 73.9 °F - 73.8 °F 99% 30.03 in 10.0 mi Calm Calm - N/A   Scattered Clouds
4:15 AM 73.9 °F - 73.6 °F 99% 30.03 in 10.0 mi East 3.5 mph - N/A   Scattered Clouds
4:35 AM 73.8 °F - 73.4 °F 99% 30.03 in 10.0 mi East 3.5 mph - N/A   Clear
4:55 AM 74.5 °F - 73.8 °F 98% 30.03 in 10.0 mi ESE 4.6 mph - N/A   Clear
5:15 AM 74.8 °F - 73.9 °F 97% 30.03 in 10.0 mi ESE 4.6 mph - N/A   Clear
5:35 AM 74.8 °F - 74.3 °F 98% 30.03 in 10.0 mi ESE 4.6 mph - N/A   Clear
5:55 AM 74.8 °F - 73.9 °F 97% 30.04 in 10.0 mi ESE 3.5 mph - N/A   Clear
6:15 AM 74.5 °F - 73.8 °F 98% 30.04 in 10.0 mi ESE 3.5 mph - N/A   Clear
7:15 AM 75.0 °F - 74.3 °F 98% 30.05 in 10.0 mi Calm Calm - N/A   Clear
7:35 AM 75.4 °F - 74.3 °F 96% 30.06 in 7.0 mi Calm Calm - N/A   Clear
7:55 AM 76.3 °F - 74.8 °F 95% 30.06 in 10.0 mi Calm Calm - N/A   Clear
8:15 AM 78.1 °F - 75.2 °F 91% 30.06 in 10.0 mi SE 3.5 mph - N/A   Clear
8:35 AM 79.3 °F - 75.6 °F 88% 30.07 in 10.0 mi ESE 4.6 mph - N/A   Clear
8:55 AM 80.8 °F 87.1 °F 76.1 °F 86% 30.07 in 10.0 mi SE 5.8 mph - N/A   Clear
9:15 AM 82.0 °F 89.4 °F 75.9 °F 82% 30.08 in 10.0 mi SE 5.8 mph - N/A   Clear
9:35 AM 83.1 °F 91.6 °F 76.3 °F 80% 30.09 in 10.0 mi SE 9.2 mph - N/A   Clear
9:55 AM 83.8 °F 93.2 °F 76.6 °F 79% 30.09 in 10.0 mi ESE 8.1 mph - N/A   Scattered Clouds
10:15 AM 83.7 °F 92.4 °F 76.3 °F 78% 30.09 in 10.0 mi SE 9.2 mph - N/A   Mostly Cloudy
10:35 AM 82.6 °F 91.1 °F 76.8 °F 83% 30.09 in 7.0 mi SE 6.9 mph - N/A   Light Drizzle
10:55 AM 83.5 °F 90.9 °F 74.7 °F 75% 30.10 in 10.0 mi SSE 5.8 mph - N/A   Overcast
11:15 AM 81.7 °F 88.0 °F 75.0 °F 80% 30.09 in 10.0 mi SSE 5.8 mph - N/A   Light Drizzle
11:35 AM 86.4 °F 95.5 °F 75.0 °F 69% 30.09 in 10.0 mi SE 11.5 mph - N/A   Mostly Cloudy
11:55 AM 86.9 °F 95.4 °F 74.1 °F 66% 30.09 in 10.0 mi ESE 9.2 mph - N/A   Mostly Cloudy
12:15 PM 87.4 °F 95.8 °F 73.8 °F 64% 30.09 in 10.0 mi SE 8.1 mph - N/A   Mostly Cloudy
12:35 PM 87.6 °F 95.7 °F 73.8 °F 63% 30.09 in 10.0 mi SE 8.1 mph - N/A   Mostly Cloudy
12:55 PM 87.4 °F 95.3 °F 73.2 °F 63% 30.08 in 10.0 mi SE 10.4 mph - N/A   Mostly Cloudy
1:15 PM 87.8 °F 96.1 °F 73.9 °F 63% 30.07 in 10.0 mi SE 6.9 mph - N/A   Scattered Clouds
1:35 PM 88.0 °F 97.5 °F 74.8 °F 65% 30.06 in 10.0 mi SE 9.2 mph 16.1 mph N/A   Scattered Clouds
1:55 PM 88.0 °F 97.0 °F 74.5 °F 64% 30.06 in 10.0 mi SE 10.4 mph - N/A   Scattered Clouds
2:15 PM 87.4 °F 95.3 °F 73.6 °F 63% 30.05 in 10.0 mi SE 9.2 mph - N/A   Scattered Clouds
2:35 PM 88.9 °F 97.6 °F 73.9 °F 61% 30.04 in 10.0 mi SE 9.2 mph 16.1 mph N/A   Clear
2:55 PM 86.9 °F 93.7 °F 72.5 °F 62% 30.04 in 10.0 mi ESE 9.2 mph - N/A   Scattered Clouds
3:15 PM 87.8 °F 95.2 °F 72.7 °F 61% 30.04 in 10.0 mi SE 8.1 mph 16.1 mph N/A   Scattered Clouds
3:55 PM 88.2 °F 95.5 °F 72.7 °F 60% 30.02 in 10.0 mi SSE 6.9 mph 16.1 mph N/A   Scattered Clouds
4:15 PM 88.2 °F 93.3 °F 70.3 °F 55% 30.02 in 10.0 mi SE 9.2 mph - N/A   Scattered Clouds
4:35 PM 87.3 °F 93.6 °F 71.6 °F 60% 30.02 in 10.0 mi SE 8.1 mph - N/A   Scattered Clouds
4:55 PM 85.3 °F 93.0 °F 74.1 °F 69% 30.02 in 10.0 mi East 12.7 mph 18.4 mph N/A   Mostly Cloudy
5:15 PM 81.9 °F 88.2 °F 74.8 °F 79% 30.02 in 10.0 mi East 6.9 mph - N/A   Mostly Cloudy
5:35 PM 82.8 °F 89.8 °F 74.8 °F 77% 30.01 in 10.0 mi ESE 8.1 mph - N/A   Mostly Cloudy
5:55 PM 84.2 °F 91.2 °F 73.8 °F 71% 30.01 in 10.0 mi ESE 10.4 mph - N/A   Scattered Clouds
6:15 PM 83.5 °F 90.0 °F 73.8 °F 72% 30.01 in 10.0 mi SE 5.8 mph - N/A   Clear
6:35 PM 82.8 °F 88.4 °F 73.0 °F 72% 30.01 in 10.0 mi SE 6.9 mph - N/A   Clear
6:55 PM 81.3 °F 86.5 °F 73.4 °F 77% 30.01 in 10.0 mi SE 6.9 mph - N/A   Clear
7:35 PM 79.2 °F - 73.8 °F 83% 30.01 in 10.0 mi SE 3.5 mph - N/A   Clear
7:55 PM 78.3 °F - 74.1 °F 87% 30.01 in 10.0 mi SE 4.6 mph - N/A   Clear
8:15 PM 77.9 °F - 74.3 °F 89% 30.01 in 10.0 mi SE 3.5 mph - N/A   Clear
8:35 PM 77.5 °F - 74.7 °F 91% 30.02 in 10.0 mi SE 3.5 mph - N/A   Clear
8:55 PM 77.4 °F - 75.0 °F 92% 30.03 in 10.0 mi Calm Calm - N/A   Clear
9:15 PM 77.0 °F - 75.2 °F 94% 30.04 in 10.0 mi Calm Calm - N/A   Clear
9:35 PM 77.2 °F - 75.0 °F 93% 30.04 in 10.0 mi Calm Calm - N/A   Clear
9:55 PM 77.4 °F - 75.2 °F 93% 30.04 in 10.0 mi East 3.5 mph - N/A   Clear
10:15 PM 77.0 °F - 74.8 °F 93% 30.04 in 10.0 mi Calm Calm - N/A   Clear
10:35 PM 76.6 °F - 74.8 °F 94% 30.04 in 10.0 mi East 3.5 mph - N/A   Clear
10:55 PM 76.5 °F - 75.2 °F 96% 30.04 in 10.0 mi Calm Calm - N/A   Clear
11:15 PM 76.5 °F - 75.2 °F 96% 30.05 in 10.0 mi Calm Calm - N/A   Clear
11:35 PM 76.3 °F - 75.2 °F 96% 30.04 in 10.0 mi East 3.5 mph - N/A   Scattered Clouds
11:55 PM 76.1 °F - 75.2 °F 97% 30.04 in 10.0 mi East 3.5 mph - N/A   Clear